| time (UTC) | temp F | wind direction | speed knots | gust knots | rain 1hr in | rain 24hr in | rain mn in | humidity % | barometer mb |
| 20260507161025 | 68 | 273 | 0.9 | 1.7 | 0.00 | 0.01 | 0.01 | 70 | 1015.3 |
| 20260507160021 | 68 | 239 | 0.0 | 0.9 | 0.00 | 0.01 | 0.01 | 69 | 1015.2 |
| 20260507155017 | 69 | 289 | 0.9 | 1.7 | 0.00 | 0.01 | 0.01 | 67 | 1015.2 |
| 20260507154054 | 69 | 224 | 0.0 | 0.0 | 0.00 | 0.01 | 0.01 | 70 | 1015.1 |
| 20260507153029 | 69 | 233 | 0.0 | 0.9 | 0.00 | 0.01 | 0.01 | 67 | 1015.0 |
| 20260507152024 | 69 | 290 | 0.9 | 2.6 | 0.00 | 0.01 | 0.01 | 66 | 1015.0 |
| 20260507151020 | 69 | 293 | 0.0 | 0.0 | 0.00 | 0.01 | 0.01 | 67 | 1015.1 |
| 20260507150116 | 68 | 291 | 0.0 | 1.7 | 0.00 | 0.01 | 0.01 | 69 | 1015.2 |
| 20260507145032 | 67 | 249 | 0.9 | 3.5 | 0.00 | 0.01 | 0.01 | 72 | 1015.2 |
| 20260507144027 | 67 | 285 | 0.9 | 2.6 | 0.00 | 0.01 | 0.01 | 74 | 1015.3 |
| 20260507143022 | 67 | 311 | 1.7 | 2.6 | 0.00 | 0.01 | 0.01 | 73 | 1015.4 |
| 20260507142059 | 67 | 290 | 0.9 | 1.7 | 0.00 | 0.01 | 0.01 | 71 | 1015.2 |
| 20260507141034 | 67 | 291 | 0.9 | 1.7 | 0.00 | 0.01 | 0.01 | 69 | 1015.2 |
| 20260507140050 | 67 | 64 | 0.9 | 1.7 | 0.00 | 0.01 | 0.01 | 71 | 1015.1 |
| 20260507135046 | 66 | 59 | 0.9 | 2.6 | 0.00 | 0.01 | 0.01 | 72 | 1015.2 |
| 20260507134022 | 67 | 33 | 1.7 | 3.5 | 0.00 | 0.01 | 0.01 | 72 | 1015.3 |
| 20260507133019 | 66 | 36 | 2.6 | 5.2 | 0.00 | 0.01 | 0.01 | 74 | 1015.3 |
| 20260507132054 | 66 | 78 | 1.7 | 3.5 | 0.00 | 0.01 | 0.01 | 72 | 1015.6 |
| 20260507131030 | 65 | 268 | 1.7 | 3.5 | 0.00 | 0.01 | 0.01 | 70 | 1015.8 |
| 20260507130026 | 65 | 298 | 2.6 | 5.2 | 0.00 | 0.01 | 0.01 | 71 | 1016.0 |
| 20260507125022 | 65 | 288 | 2.6 | 5.2 | 0.00 | 0.01 | 0.01 | 72 | 1016.2 |
| 20260507124018 | 65 | 304 | 0.9 | 1.7 | 0.01 | 0.01 | 0.01 | 72 | 1016.4 |
| 20260507123034 | 65 | 267 | 0.9 | 2.6 | 0.01 | 0.01 | 0.01 | 74 | 1016.6 |
| 20260507122029 | 64 | 253 | 0.9 | 3.5 | 0.01 | 0.01 | 0.01 | 75 | 1016.7 |
| 20260507121024 | 64 | 255 | 0.9 | 3.5 | 0.01 | 0.01 | 0.01 | 78 | 1016.7 |
| 20260507120032 | 65 | 41 | 0.0 | 1.7 | 0.01 | 0.01 | 0.01 | 79 | 1016.7 |
| 20260507115035 | 65 | 241 | 0.0 | 0.9 | 0.01 | 0.01 | 0.01 | 74 | 1016.7 |
| 20260507114031 | 66 | 277 | 0.9 | 3.5 | 0.00 | 0.00 | 0.00 | 72 | 1016.7 |
| 20260507113059 | 66 | 270 | 0.0 | 1.7 | 0.00 | 0.00 | 0.00 | 71 | 1016.8 |
| 20260507112023 | 67 | 332 | 0.9 | 2.6 | 0.00 | 0.00 | 0.00 | 70 | 1016.8 |
| 20260507111018 | 65 | 315 | 0.0 | 0.9 | 0.00 | 0.00 | 0.00 | 70 | 1016.9 |
| 20260507110033 | 66 | 347 | 0.9 | 1.7 | 0.00 | 0.00 | 0.00 | 74 | 1016.9 |
| 20260507105027 | 66 | 37 | 0.9 | 1.7 | 0.00 | 0.00 | 0.00 | 74 | 1016.8 |
| 20260507104035 | 66 | 40 | 0.0 | 0.9 | 0.00 | 0.00 | 0.00 | 73 | 1016.7 |
| 20260507103036 | 65 | 15 | 0.0 | 1.7 | 0.00 | 0.00 | 0.00 | 73 | 1016.5 |
| 20260507102021 | 65 | 62 | 0.9 | 0.9 | 0.00 | 0.00 | 0.00 | 72 | 1016.6 |
| 20260507101520 | 65 | 46 | 0.0 | 1.7 | 0.00 | 0.00 | 0.00 | 72 | 1016.6 |
| 20260507100534 | 64 | 52 | 1.7 | 2.6 | 0.00 | 0.00 | 0.00 | 71 | 1016.4 |
| 20260507095530 | 64 | 39 | 0.0 | 1.7 | 0.00 | 0.00 | 0.00 | 70 | 1016.4 |
| 20260507094526 | 64 | 52 | 1.7 | 2.6 | 0.00 | 0.00 | 0.00 | 71 | 1016.3 |
| 20260507093521 | 65 | 59 | 0.9 | 2.6 | 0.00 | 0.00 | 0.00 | 72 | 1016.3 |
| 20260507092516 | 65 | 42 | 1.7 | 2.6 | 0.00 | 0.00 | 0.00 | 70 | 1016.3 |
| 20260507091552 | 66 | 45 | 1.7 | 5.2 | 0.00 | 0.00 | 0.00 | 65 | 1016.0 |
| 20260507090527 | 65 | 50 | 2.6 | 7.0 | 0.00 | 0.00 | 0.00 | 65 | 1016.0 |
| 20260507085542 | 65 | 48 | 3.5 | 7.0 | 0.00 | 0.00 | 0.00 | 68 | 1016.0 |
| 20260507084538 | 65 | 45 | 1.7 | 5.2 | 0.00 | 0.00 | 0.00 | 67 | 1015.9 |
| 20260507083534 | 65 | 41 | 4.3 | 7.0 | 0.00 | 0.00 | 0.00 | 70 | 1015.7 |
| 20260507082531 | 64 | 34 | 7.0 | 9.6 | 0.00 | 0.00 | 0.00 | 71 | 1015.7 |
| 20260507081545 | 64 | 43 | 4.3 | 7.8 | 0.00 | 0.00 | 0.00 | 70 | 1015.6 |
| 20260507080520 | 64 | 46 | 6.1 | 9.6 | 0.00 | 0.00 | 0.00 | 72 | 1015.6 |
| 20260507075536 | 65 | 48 | 6.1 | 8.7 | 0.00 | 0.00 | 0.00 | 70 | 1015.5 |
| 20260507074551 | 64 | 47 | 4.3 | 7.8 | 0.00 | 0.00 | 0.00 | 73 | 1015.6 |
| 20260507073526 | 64 | 38 | 6.1 | 9.6 | 0.00 | 0.00 | 0.00 | 73 | 1015.6 |
| 20260507072521 | 65 | 55 | 4.3 | 7.8 | 0.00 | 0.00 | 0.00 | 72 | 1015.5 |
| 20260507071535 | 63 | 65 | 2.6 | 5.2 | 0.00 | 0.00 | 0.00 | 74 | 1015.4 |
| 20260507071018 | 63 | 38 | 5.2 | 7.8 | 0.00 | 0.00 | 0.00 | 74 | 1015.5 |
| 20260507070026 | 62 | 41 | 5.2 | 7.8 | 0.00 | 0.00 | 0.00 | 77 | 1015.5 |
| 20260507065021 | 62 | 50 | 3.5 | 7.0 | 0.00 | 0.00 | 0.00 | 77 | 1015.7 |
| 20260507064017 | 62 | 43 | 1.7 | 3.5 | 0.00 | 0.00 | 0.00 | 75 | 1015.7 |
| 20260507063033 | 62 | 35 | 0.9 | 5.2 | 0.00 | 0.00 | 0.00 | 75 | 1015.5 |
| 20260507062029 | 62 | 26 | 0.9 | 3.5 | 0.00 | 0.00 | 0.00 | 75 | 1015.5 |
| 20260507061024 | 62 | 46 | 0.9 | 2.6 | 0.00 | 0.00 | 0.00 | 76 | 1015.4 |
| 20260507060020 | 62 | 46 | 1.7 | 3.5 | 0.00 | 0.00 | 0.00 | 77 | 1015.5 |
| 20260507055016 | 62 | 42 | 1.7 | 2.6 | 0.00 | 0.00 | 0.00 | 76 | 1015.4 |
| 20260507054032 | 62 | 21 | 0.0 | 0.9 | 0.00 | 0.00 | 0.00 | 76 | 1015.5 |
| 20260507053048 | 60 | 272 | 0.0 | 0.9 | 0.00 | 0.00 | 0.00 | 79 | 1015.4 |
| 20260507052044 | 61 | 232 | 0.0 | 0.0 | 0.00 | 0.00 | 0.00 | 81 | 1015.4 |
| 20260507051019 | 59 | 230 | 0.0 | 0.0 | 0.00 | 0.00 | 0.00 | 85 | 1015.4 |
| 20260507050056 | 59 | 214 | 0.0 | 0.0 | 0.00 | 0.00 | 0.00 | 89 | 1015.4 |
| 20260507045032 | 56 | 214 | 0.0 | 0.0 | 0.00 | 0.00 | 0.00 | 90 | 1015.3 |
| 20260507044047 | 56 | 214 | 0.0 | 0.0 | 0.00 | 0.00 | 0.00 | 91 | 1015.1 |
| 20260507043023 | 55 | 214 | 0.0 | 0.0 | 0.00 | 0.00 | 0.00 | 91 | 1015.0 |
| 20260507042019 | 55 | 209 | 0.0 | 0.0 | 0.00 | 0.00 | 0.00 | 91 | 1015.1 |
| 20260507041035 | 55 | 209 | 0.0 | 0.0 | 0.00 | 0.00 | 0.00 | 91 | 1015.1 |
| 20260507040030 | 54 | 210 | 0.0 | 0.0 | 0.00 | 0.00 | 0.00 | 92 | 1014.9 |
| 20260507035026 | 53 | 208 | 0.0 | 0.0 | 0.00 | 0.00 | 0.00 | 92 | 1014.8 |
| 20260507034021 | 53 | 208 | 0.0 | 0.0 | 0.00 | 0.00 | 0.00 | 92 | 1014.7 |
| 20260507033017 | 53 | 209 | 0.0 | 0.0 | 0.00 | 0.00 | 0.00 | 92 | 1014.6 |
| 20260507032033 | 53 | 208 | 0.0 | 0.0 | 0.00 | 0.00 | 0.00 | 92 | 1014.4 |
| 20260507031029 | 53 | 242 | 0.0 | 0.0 | 0.00 | 0.00 | 0.00 | 92 | 1014.6 |
| 20260507030025 | 53 | 243 | 0.0 | 0.0 | 0.00 | 0.00 | 0.00 | 92 | 1014.5 |
| 20260507025021 | 53 | 133 | 0.0 | 0.0 | 0.00 | 0.00 | 0.00 | 91 | 1014.3 |
| 20260507024017 | 53 | 133 | 0.0 | 0.0 | 0.00 | 0.00 | 0.00 | 91 | 1014.1 |
| 20260507023033 | 53 | 133 | 0.0 | 0.0 | 0.00 | 0.00 | 0.00 | 91 | 1014.2 |
| 20260507022029 | 53 | 133 | 0.0 | 0.0 | 0.00 | 0.00 | 0.00 | 91 | 1014.1 |
| 20260507021024 | 53 | 133 | 0.0 | 0.0 | 0.00 | 0.00 | 0.00 | 91 | 1014.1 |
| 20260507020020 | 54 | 133 | 0.0 | 0.0 | 0.00 | 0.00 | 0.00 | 91 | 1013.9 |
| 20260507015036 | 54 | 133 | 0.0 | 0.0 | 0.00 | 0.00 | 0.00 | 91 | 1013.9 |
| 20260507014032 | 54 | 133 | 0.0 | 0.0 | 0.00 | 0.00 | 0.00 | 91 | 1013.9 |
| 20260507013028 | 54 | 133 | 0.0 | 0.0 | 0.00 | 0.00 | 0.00 | 90 | 1013.8 |
| 20260507012024 | 54 | 133 | 0.0 | 0.0 | 0.00 | 0.00 | 0.00 | 90 | 1013.9 |
| 20260507011020 | 54 | 133 | 0.0 | 0.0 | 0.00 | 0.00 | 0.00 | 90 | 1013.8 |
| 20260507010036 | 55 | 133 | 0.0 | 0.9 | 0.00 | 0.00 | 0.00 | 91 | 1013.9 |
| 20260507005032 | 54 | 188 | 0.0 | 0.0 | 0.00 | 0.00 | 0.00 | 91 | 1014.0 |
| 20260507004027 | 55 | 187 | 0.0 | 0.0 | 0.00 | 0.00 | 0.00 | 91 | 1014.0 |
| 20260507003023 | 55 | 187 | 0.0 | 0.0 | 0.00 | 0.00 | 0.00 | 90 | 1014.0 |
| 20260507002019 | 55 | 188 | 0.0 | 0.0 | 0.00 | 0.00 | 0.00 | 90 | 1014.1 |
| 20260507001035 | 55 | 188 | 0.0 | 0.0 | 0.00 | 0.00 | 0.00 | 90 | 1014.1 |
| 20260507000052 | 55 | 188 | 0.0 | 0.0 | 0.00 | 0.00 | 0.00 | 90 | 1014.2 |
| 20260506235027 | 55 | 188 | 0.0 | 0.0 | 0.00 | 0.00 | 0.00 | 90 | 1014.4 |
| 20260506234023 | 55 | 214 | 0.0 | 0.0 | 0.00 | 0.00 | 0.00 | 90 | 1014.3 |
| 20260506233019 | 55 | 214 | 0.0 | 0.0 | 0.00 | 0.00 | 0.00 | 90 | 1014.4 |
| 20260506232054 | 55 | 216 | 0.0 | 0.0 | 0.00 | 0.00 | 0.00 | 89 | 1014.5 |
| 20260506231525 | 55 | 216 | 0.0 | 0.0 | 0.00 | 0.00 | 0.00 | 89 | 1014.5 |
| 20260506230519 | 55 | 216 | 0.0 | 0.0 | 0.00 | 0.00 | 0.00 | 89 | 1014.5 |
| 20260506225535 | 55 | 216 | 0.0 | 0.0 | 0.00 | 0.00 | 0.00 | 89 | 1014.5 |
| 20260506224531 | 55 | 217 | 0.0 | 0.0 | 0.00 | 0.00 | 0.00 | 89 | 1014.6 |
| 20260506223527 | 56 | 256 | 0.0 | 0.0 | 0.00 | 0.00 | 0.00 | 89 | 1014.6 |
| 20260506222543 | 56 | 256 | 0.0 | 0.0 | 0.00 | 0.00 | 0.00 | 90 | 1014.5 |
| 20260506221559 | 56 | 256 | 0.0 | 0.0 | 0.00 | 0.00 | 0.00 | 89 | 1014.6 |
| 20260506220533 | 56 | 256 | 0.0 | 0.0 | 0.00 | 0.00 | 0.00 | 89 | 1014.6 |
| 20260506215549 | 56 | 256 | 0.0 | 0.0 | 0.00 | 0.00 | 0.00 | 89 | 1014.6 |
| 20260506214524 | 56 | 256 | 0.0 | 0.0 | 0.00 | 0.00 | 0.00 | 88 | 1014.6 |
| 20260506213520 | 56 | 256 | 0.0 | 0.0 | 0.00 | 0.00 | 0.00 | 88 | 1014.4 |
| 20260506212531 | 56 | 256 | 0.0 | 0.0 | 0.00 | 0.00 | 0.00 | 88 | 1014.5 |
| 20260506211526 | 57 | 256 | 0.0 | 0.0 | 0.00 | 0.00 | 0.00 | 88 | 1014.5 |
| 20260506210522 | 56 | 256 | 0.0 | 0.0 | 0.00 | 0.00 | 0.00 | 88 | 1014.5 |
| 20260506205518 | 56 | 256 | 0.0 | 0.0 | 0.00 | 0.00 | 0.00 | 88 | 1014.5 |
| 20260506204534 | 56 | 256 | 0.0 | 0.0 | 0.00 | 0.00 | 0.00 | 88 | 1014.5 |
| 20260506203529 | 57 | 256 | 0.0 | 0.0 | 0.00 | 0.00 | 0.00 | 87 | 1014.5 |
| 20260506202525 | 57 | 256 | 0.0 | 0.0 | 0.00 | 0.00 | 0.00 | 88 | 1014.4 |
| 20260506201520 | 57 | 256 | 0.0 | 0.0 | 0.00 | 0.00 | 0.00 | 88 | 1014.3 |
| 20260506200516 | 57 | 256 | 0.0 | 0.0 | 0.00 | 0.00 | 0.00 | 87 | 1014.3 |
| 20260506195553 | 57 | 256 | 0.0 | 0.0 | 0.00 | 0.00 | 0.00 | 87 | 1014.2 |
| 20260506194528 | 57 | 256 | 0.0 | 0.0 | 0.00 | 0.00 | 0.00 | 87 | 1014.2 |
| 20260506193604 | 58 | 256 | 0.0 | 0.0 | 0.00 | 0.00 | 0.00 | 87 | 1014.1 |
| 20260506192600 | 58 | 256 | 0.0 | 0.0 | 0.00 | 0.00 | 0.00 | 86 | 1014.1 |
| 20260506191555 | 58 | 256 | 0.0 | 0.0 | 0.00 | 0.00 | 0.00 | 86 | 1014.1 |
| 20260506190531 | 58 | 256 | 0.0 | 0.0 | 0.00 | 0.00 | 0.00 | 85 | 1014.1 |
| 20260506185547 | 59 | 256 | 0.0 | 0.0 | 0.00 | 0.00 | 0.00 | 86 | 1014.0 |
| 20260506184523 | 59 | 256 | 0.0 | 0.0 | 0.00 | 0.00 | 0.00 | 85 | 1013.9 |
| 20260506183559 | 59 | 256 | 0.0 | 0.0 | 0.00 | 0.00 | 0.00 | 85 | 1013.8 |
| 20260506182535 | 60 | 256 | 0.0 | 0.0 | 0.00 | 0.00 | 0.00 | 84 | 1013.7 |
| 20260506181530 | 60 | 257 | 0.0 | 0.0 | 0.00 | 0.00 | 0.00 | 84 | 1013.6 |
| 20260506180545 | 60 | 256 | 0.0 | 0.0 | 0.00 | 0.00 | 0.00 | 83 | 1013.3 |
| 20260506175542 | 61 | 257 | 0.0 | 0.0 | 0.00 | 0.00 | 0.00 | 83 | 1013.3 |
| 20260506174517 | 62 | 257 | 0.0 | 0.0 | 0.00 | 0.00 | 0.00 | 83 | 1013.2 |
| 20260506173533 | 63 | 257 | 0.0 | 0.0 | 0.00 | 0.00 | 0.00 | 82 | 1013.3 |
| 20260506172528 | 64 | 257 | 0.0 | 0.0 | 0.00 | 0.00 | 0.00 | 81 | 1013.1 |
| 20260506171524 | 65 | 300 | 0.9 | 1.7 | 0.00 | 0.00 | 0.00 | 80 | 1013.1 |
| 20260506170520 | 66 | 333 | 0.0 | 2.6 | 0.00 | 0.00 | 0.00 | 79 | 1013.0 |
| 20260506165536 | 66 | 13 | 0.9 | 2.6 | 0.00 | 0.00 | 0.00 | 78 | 1013.0 |
| 20260506164531 | 66 | 22 | 0.9 | 3.5 | 0.00 | 0.00 | 0.00 | 77 | 1013.0 |
| 20260506163527 | 67 | 27 | 0.9 | 2.6 | 0.00 | 0.00 | 0.00 | 76 | 1013.0 |
| 20260506162523 | 67 | 22 | 1.7 | 2.6 | 0.00 | 0.00 | 0.00 | 75 | 1013.0 |